Hourly Data Report for June 24, 2021

MANIWAKI AIRPORT
QUEBEC
Current Station Operator: ECCC - MSC

46°16'29.000" N
75°59'31.000" W
199.70 m
7034482
71721
WMJ

Download Data

Hourly Data (June 2021)
Hourly Data Report for June 24, 2021
TIME
LST
Temp Definition
°C
Dew Point Definition
°C
Rel Hum Definition
%
Precip. Amount Definition
mm

Wind Dir Definition
10's deg

Wind Spd Definition
km/h
Visibility Definition
km
Stn Press Definition
kPa
Hmdx Definition


Wind Chill Definition


Weather Definition


00:00 13.4 8.2 71 0.0 19 9   99.70     LegendNANA
01:00 12.1 8.3 78 0.0 19 6   99.74     LegendNANA
02:00 13.1 8.4 73 0.0 18 12   99.73     LegendNANA
03:00 12.4 7.9 74 0.0 19 9   99.77     LegendNANA
04:00 12.6 7.4 70 0.0 18 9   99.78     LegendNANA
05:00 13.0 7.4 69 0.0 18 10   99.81     LegendNANA
06:00 14.7 8.3 65 0.0 19 14   99.81     LegendNANA
07:00 16.7 9.7 63 0.0 18 11   99.77     LegendNANA
08:00 18.4 9.9 58 0.0 20 19   99.79     LegendNANA
09:00 20.7 10.3 51 0.0 20 21   99.76     LegendNANA
10:00 23.8 11.7 47 0.0 19 21   99.74 26   LegendNANA
11:00 24.3 11.2 44 0.0 18 28   99.69 26   LegendNANA
12:00 25.6 11.6 41 0.0 19 28   99.65 28   LegendNANA
13:00 26.7 12.2 41 0.0 18 28   99.63 29   LegendNANA
14:00 26.7 11.9 40 0.0 19 24   99.61 29   LegendNANA
15:00 25.5 11.1 41 0.0 18 26   99.58 27   LegendNANA
16:00 25.2 10.5 40 0.0 18 23   99.57 27   LegendNANA
17:00 24.7 9.6 38 0.0 19 25   99.58 26   LegendNANA
18:00 23.7 8.7 38 0.0 18 16   99.62     LegendNANA
19:00 22.8 8.4 40 0.0 18 16   99.59     LegendNANA
20:00 21.8 9.4 45 0.0 18 12   99.63     LegendNANA
21:00 21.3 9.4 47 0.0 18 11   99.67     LegendNANA
22:00 20.8 9.7 49 0.0 18 11   99.65     LegendNANA
23:00 20.8 10.0 50 0.0 19 12   99.63     LegendNANA

Notes on Data Quality.

Legend

  • E = Estimated
  • M = Missing
  • NA = Not Available*
  • [empty] = Indicates an unobserved value
Date modified: